Flag for Switzerland Weather past 2 weeks in Stans, Nidwalden, Switzerland

Now
56 °F

Cool.


Feels Like: 56 °F
Forecast: 45 / 62 °F
Wind: 5 mph from Southwest

Location: Giswil

Current Time: Sep 5, 2015 at 7:22:39 PM

Latest Report: Sep 5, 2015 at 6:00 PM


Visibility: N/A

Pressure: 30.11 "Hg

Humidity: 74%

Dew point: 48 °F

Location of StansLocation

Historic Weather in Stans — Graph

°F

Stans temperature yesterday

Maximum temperature yesterday: 70 °F (at 3:00 PM)
Minimum temperature yesterday: 51 °F (at 8:00 AM)
Average temperature yesterday: 61 °F

Past Weeks' High & Low Weather Summary

 TemperatureHumidityPressure
High89 °F (Aug 30, 3:00 PM)100% (Aug 22, 8:00 AM)30.20 "Hg (Aug 22, 8:00 AM)
Low47 °F (Aug 26, 7:00 AM)31% (Aug 30, 4:00 PM)29.70 "Hg (Aug 24, 2:00 PM)
Average64 °F80%30.00 "Hg
* Reported Aug 21 6:00 PM — Sep 5 6:00 PM, Stans, Weather by CustomWeather, © 2015

Note: Actual official high and low records may vary slightly from our data, if they occured in-between our weather recording intervals... More about our weather records

Advertising

Stans weather history for previous 24 hours

 ConditionsComfort  
Time TempWeatherWind HumidityBarometerVisibility
6:00 PM
Sat, Sep 5
56 °FCool.5 mph74%30.11 "HgN/A
5:00 PM55 °FCool.3 mph79%30.12 "HgN/A
4:00 PM56 °FCool.3 mph81%30.11 "HgN/A
3:00 PM56 °FCool.1 mph82%30.11 "HgN/A
2:00 PM55 °FCool.No wind83%30.10 "HgN/A
1:00 PM54 °FCool.2 mph91%30.10 "HgN/A
12:00 PM54 °FCool.2 mph94%30.10 "HgN/A
11:00 AM54 °FCool.No wind95%30.09 "HgN/A
10:00 AM54 °FCool.1 mph93%30.07 "HgN/A
9:00 AM53 °FCool.1 mph97%30.06 "HgN/A
8:00 AM53 °FCool.1 mph97%30.05 "HgN/A
7:00 AM53 °FCool.2 mph96%30.04 "HgN/A
6:00 AM53 °FCool.1 mph96%30.04 "HgN/A
4:00 AM53 °FCool.1 mph95%30.05 "HgN/A
3:00 AM54 °FCool.2 mph93%30.04 "HgN/A
2:00 AM54 °FCool.3 mph93%30.03 "HgN/A
1:00 AM60 °FCool.2 mph62%30.00 "HgN/A
12:00 AM60 °FCool.1 mph74%29.99 "HgN/A
10:00 PM
Fri, Sep 4
64 °FMild.3 mph57%29.97 "HgN/A
9:00 PM64 °FMild.5 mph58%29.95 "HgN/A
7:00 PM65 °FMild.1 mph61%29.93 "HgN/A
Weather by CustomWeather, © 2015

See weather overviewHow to use our weather pages